1509094800.56,55971,12.56,73000.3,-2.75,-4.17,-4.25,0,*5E
1509094801.79,55972,12.56,73002.3,-2.77,-4.17,-4.21,0,*5B
1509094802.98,55973,12.5,72998.8,-2.73,-4.13,-4.17,0,*5F
1509094804.18,55974,12.5,72996.8,-2.73,-4.25,-4.37,0,*5F
1509094805.38,55975,12.56,72998.0,-2.73,-4.17,-4.25,0,*5C
1509094806.58,55976,12.56,72996.5,-2.73,-4.13,-4.25,0,*5B
1509094807.78,55977,12.56,73000.8,-2.73,-4.13,-4.17,0,*5B
1509094808.97,55978,12.5,73006.3,-2.73,-4.17,-4.29,0,*5D
1509094810.2,55979,12.5,73008.3,-2.73,-4.61,-4.73,0,*52
1509094811.38,55980,12.56,73014.3,-2.73,-4.37,-4.45,0,*52
1509094812.6,55981,12.56,73014.3,-2.69,-4.21,-4.37,0,*5A
1509094813.8,55982,12.5,73010.0,-2.69,-4.41,-4.65,0,*58
1509094815.02,55983,12.56,73004.3,-2.73,-4.53,-4.69,0,*5D
1509094816.27,55984,12.5,73002.8,-2.73,-4.93,-5.07,0,*5F
1509094817.52,55985,12.5,73006.0,-2.73,-5.03,-5.07,0,*56
1509094818.77,55986,12.5,73002.5,-2.77,-4.99,-5.11,0,*54
1509094820.05,55987,12.5,73002.0,-2.75,-4.89,-5.03,0,*55
1509094821.33,55988,12.5,73002.0,-2.75,-4.81,-5.03,0,*52
1509094822.56,55989,12.56,72998.0,-2.77,-4.93,-4.99,0,*50
1509094823.8,55990,12.5,73002.3,-2.77,-4.93,-4.99,0,*58
1509094825.07,55991,12.56,73000.8,-2.77,-4.93,-5.07,0,*5F
1509094826.34,55992,12.5,73002.8,-2.75,-4.77,-4.89,0,*53
1509094827.61,55993,12.56,73000.0,-2.77,-4.81,-4.93,0,*52
1509094828.87,55994,12.5,72998.3,-2.77,-4.73,-4.93,0,*58
1509094830.14,55995,12.56,73000.0,-2.77,-4.93,-5.07,0,*5B
1509094831.39,55996,12.5,73002.0,-2.79,-4.73,-4.81,0,*57
1509094832.61,55997,12.56,72998.8,-2.79,-4.65,-4.77,0,*58
1509094833.85,55998,12.5,72994.5,-2.79,-4.69,-4.69,0,*54
1509094835.05,55999,12.56,72996.0,-2.79,-4.49,-4.61,0,*5F
1509094836.26,56000,12.5,72998.5,-2.81,-4.49,-4.49,0,*58
1509094837.46,56001,12.5,72996.5,-2.79,-4.61,-4.61,0,*5E
1509094838.69,56002,12.5,73004.3,-2.77,-4.61,-4.57,0,*56
1509094839.87,56003,12.5,73006.8,-2.79,-4.45,-4.45,0,*5C
1509094841.09,56004,12.5,73004.5,-2.79,-4.49,-4.69,0,*59
1509094842.34,56005,12.56,73004.3,-2.79,-4.69,-4.69,0,*5A
1509094843.6,56006,12.56,73008.0,-2.81,-4.73,-4.73,0,*5E
1509094844.79,56007,12.5,73006.8,-2.79,-4.49,-4.49,0,*58
1509094846.02,56008,12.5,73000.8,-2.81,-4.33,-4.37,0,*54
1509094847.22,56009,12.5,73004.8,-2.79,-4.33,-4.33,0,*56
1509094848.42,56010,12.5,73010.3,-2.79,-4.21,-4.09,0,*54
1509094849.62,56011,12.5,73004.3,-2.79,-4.33,-4.33,0,*5F
1509094850.87,56012,12.5,73006.8,-2.79,-4.85,-4.81,0,*58
1509094852.11,56013,12.5,73006.5,-2.79,-4.85,-4.81,0,*59
1509094853.3,56014,12.5,72996.3,-2.79,-4.99,-4.99,0,*5A
1509094854.56,56015,12.5,72994.5,-2.81,-4.77,-4.73,0,*58
1509094855.83,56016,12.5,72994.3,-2.81,-4.89,-4.89,0,*5F
1509094857.07,56017,12.5,72996.5,-2.79,-4.73,-4.69,0,*52
1509094858.31,56018,12.56,73008.8,-2.81,-4.77,-4.65,0,*52
1509094859.53,56019,12.56,73008.8,-2.79,-4.69,-4.61,0,*5F
1509094860.78,56020,12.5,73008.8,-2.79,-4.81,-4.85,0,*59
1509094862.03,56021,12.5,73006.3,-2.83,-5.07,-5.03,0,*5D
1509094863.27,56022,12.56,73010.0,-2.83,-4.77,-4.81,0,*53
1509094864.51,56023,12.5,73006.0,-2.83,-4.69,-4.69,0,*5B
1509094865.73,56024,12.56,73014.3,-2.81,-4.61,-4.61,0,*5E
1509094866.93,56025,12.56,73010.8,-2.79,-4.61,-4.61,0,*58
1509094868.12,56026,12.5,73004.3,-2.83,-4.49,-4.53,0,*55
1509094869.38,56027,12.56,73002.3,-2.81,-4.77,-4.85,0,*50
1509094870.65,56028,12.56,72996.5,-2.81,-4.85,-4.85,0,*52
1509094871.85,56029,12.56,72996.0,-2.83,-4.57,-4.65,0,*50
1509094873.06,56030,12.56,72998.5,-2.81,-4.37,-4.37,0,*5B
1509094874.26,56031,12.5,72992.5,-2.83,-4.41,-4.49,0,*50
1509094875.45,56032,12.5,72992.3,-2.83,-4.37,-4.37,0,*5B
1509094876.67,56033,12.56,72998.5,-2.81,-4.33,-4.37,0,*5C
1509094877.89,56034,12.56,72992.8,-2.81,-4.37,-4.49,0,*56
1509094879.1,56035,12.56,73002.0,-2.81,-4.45,-4.49,0,*52
1509094880.31,56036,12.56,73004.3,-2.81,-4.45,-4.49,0,*51
1509094881.55,56037,12.56,73008.5,-2.79,-4.69,-4.69,0,*5B
1509094882.75,56038,12.5,72998.3,-2.79,-4.33,-4.41,0,*51
1509094883.96,56039,12.5,72988.3,-2.81,-4.45,-4.49,0,*5E
1509094885.17,56040,12.56,72982.8,-2.79,-4.21,-4.33,0,*58
1509094886.37,56041,12.56,72980.3,-2.79,-4.33,-4.41,0,*5F
1509094887.59,56042,12.5,72982.3,-2.81,-4.53,-4.65,0,*5B
1509094888.8,56043,12.5,72982.5,-2.81,-4.49,-4.49,0,*5F
1509094890.04,56044,12.56,72982.5,-2.79,-4.69,-4.81,0,*59
1509094891.31,56045,12.56,72988.5,-2.81,-4.85,-4.85,0,*59
1509094892.57,56046,12.56,72998.5,-2.81,-4.85,-4.69,0,*58
1509094893.76,56047,12.5,73006.5,-2.79,-4.45,-4.45,0,*5C
1509094895.02,56048,12.5,73008.0,-2.81,-4.85,-4.89,0,*58
1509094896.28,56049,12.5,73006.5,-2.81,-4.69,-4.73,0,*5E
1509094897.5,56050,12.5,73002.8,-2.81,-4.61,-4.61,0,*5D
1509094898.72,56051,12.56,73006.5,-2.81,-4.37,-4.37,0,*5C
1509094899.94,56052,12.5,73008.0,-2.81,-4.25,-4.37,0,*5C
1509094901.14,56053,12.56,73010.0,-2.79,-4.09,-4.25,0,*57
1509094902.34,56054,12.56,73010.0,-2.79,-4.09,-4.17,0,*51
1509094903.56,56055,12.56,73010.0,-2.81,-4.21,-4.25,0,*5C
1509094904.76,56056,12.56,73010.3,-2.79,-4.05,-4.09,0,*50
1509094905.99,56057,12.56,73008.3,-2.77,-4.21,-4.29,0,*5B
1509094907.21,56058,12.56,73006.3,-2.77,-4.29,-4.45,0,*56
1509094908.43,56059,12.56,73006.8,-2.77,-4.33,-4.33,0,*5D
1509094909.65,56060,12.5,72996.3,-2.77,-4.41,-4.45,0,*53
1509094910.88,56061,12.5,72998.0,-2.77,-4.21,-4.29,0,*5E
1509094912.1,56062,12.5,72990.3,-2.77,-4.09,-4.09,0,*55
1509094913.32,56063,12.56,72990.5,-2.77,-4.09,-4.17,0,*5B
1509094914.55,56064,12.56,72992.8,-2.75,-4.13,-4.13,0,*51
1509094915.78,56065,12.5,72996.8,-2.75,-4.05,-4.13,0,*57
1509094917.0,56066,12.56,73006.0,-2.77,-4.05,-4.09,0,*5D
1509094918.22,56067,12.5,73006.5,-2.75,-4.05,-4.17,0,*51
1509094919.48,56068,12.56,73016.3,-2.75,-4.01,-4.13,0,*5E
1509094920.7,56069,12.56,73016.5,-2.75,-4.37,-4.45,0,*59
1509094921.9,56070,12.56,73022.3,-2.73,-4.29,-4.37,0,*5D
1509094923.1,56071,12.56,73020.0,-2.73,-4.13,-4.25,0,*56
1509094924.32,56072,12.56,73020.8,-2.73,-4.65,-4.77,0,*53
1509094925.56,56073,12.56,73022.8,-2.73,-4.93,-5.07,0,*5D
1509094926.8,56074,12.5,73020.3,-2.73,-4.77,-4.81,0,*5F
1509094928.03,56075,12.5,73016.0,-2.75,-4.41,-4.57,0,*56
1509094929.26,56076,12.5,73016.8,-2.75,-4.57,-4.65,0,*53
1509094930.53,56077,12.56,73020.0,-2.75,-4.77,-4.81,0,*5A
1509094931.8,56078,12.56,73020.0,-2.77,-4.73,-4.81,0,*53
1509094933.05,56079,12.56,73020.8,-2.77,-4.61,-4.69,0,*57
1509094934.3,56080,12.56,73022.3,-2.77,-4.57,-4.69,0,*54
1509094935.57,56081,12.56,73016.8,-2.77,-4.73,-4.73,0,*58
1509094936.84,56082,12.5,73008.0,-2.75,-4.77,-4.77,0,*59
1509094938.07,56083,12.5,73004.0,-2.77,-4.93,-4.99,0,*50
1509094939.34,56084,12.56,73004.3,-2.77,-4.69,-4.69,0,*5D
1509094940.6,56085,12.5,73002.5,-2.77,-4.69,-4.73,0,*57
1509094941.82,56086,12.5,72992.5,-2.77,-4.61,-4.61,0,*5F
1509094943.09,56087,12.5,72998.8,-2.75,-4.81,-4.77,0,*55
1509094944.36,56088,12.5,72996.0,-2.77,-4.85,-4.85,0,*51
1509094945.63,56089,12.5,72988.8,-2.77,-4.73,-4.81,0,*5D
1509094946.9,56090,12.5,72992.0,-2.77,-4.85,-4.85,0,*58
1509094948.16,56091,12.5,72988.8,-2.77,-4.93,-4.93,0,*59
1509094949.38,56092,12.5,72990.3,-2.77,-4.41,-4.45,0,*5E
1509094950.6,56093,12.56,72998.0,-2.77,-4.57,-4.57,0,*5B
1509094951.87,56094,12.5,72992.0,-2.77,-4.93,-4.93,0,*5C
1509094953.11,56095,12.5,72994.3,-2.77,-4.69,-4.61,0,*55
1509094954.35,56096,12.56,73002.0,-2.79,-4.85,-4.93,0,*57
1509094955.6,56097,12.56,72998.8,-2.79,-5.07,-5.11,0,*56
1509094956.85,56098,12.56,73012.5,-2.79,-4.93,-4.85,0,*59
1509094958.07,56099,12.5,73008.5,-2.79,-4.99,-5.07,0,*59
1509094959.3,56100,12.56,72996.0,-2.81,-4.81,-4.99,0,*50
1509094960.55,56101,12.56,72986.5,-2.81,-5.03,-4.99,0,*5A
1509094961.77,56102,12.56,72986.3,-2.81,-4.65,-4.65,0,*5B
1509094963.0,56103,12.56,72986.0,-2.81,-4.21,-4.21,0,*5A
1509094964.2,56104,12.5,72976.5,-2.79,-4.29,-4.33,0,*51
1509094965.39,56105,12.56,72978.0,-2.79,-4.45,-4.57,0,*58
1509094966.59,56106,12.56,72974.3,-2.79,-4.41,-4.49,0,*50
1509094967.79,56107,12.56,72978.8,-2.79,-4.33,-4.33,0,*59
1509094968.99,56108,12.56,72986.0,-2.79,-4.09,-4.09,0,*56
1509094970.18,56109,12.5,72990.5,-2.79,-4.09,-4.17,0,*58
1509094971.41,56110,12.56,72996.8,-2.75,-4.25,-4.25,0,*53
1509094972.65,56111,12.5,73002.5,-2.75,-4.25,-4.37,0,*51
1509094973.87,56112,12.5,73004.0,-2.77,-4.17,-4.21,0,*56
1509094975.13,56113,12.56,73010.0,-2.75,-3.91,-4.01,0,*5E
1509094976.33,56114,12.56,73008.3,-2.73,-3.95,-4.05,0,*5F
1509094977.54,56115,12.56,73010.8,-2.73,-3.91,-3.91,0,*50
1509094978.77,56116,12.56,73010.8,-2.75,-4.05,-4.05,0,*55
1509094979.97,56117,12.56,73006.8,-2.69,-4.25,-4.33,0,*5E
1509094981.17,56118,12.56,73006.0,-2.73,-4.37,-4.37,0,*5D
1509094982.36,56119,12.56,73008.0,-2.73,-4.37,-4.45,0,*59
1509094983.56,56120,12.56,73002.0,-2.73,-4.57,-4.57,0,*56
1509094984.81,56121,12.56,73002.5,-2.73,-4.89,-4.93,0,*5C
1509094986.05,56122,12.5,73002.5,-2.73,-4.89,-4.93,0,*5F
1509094987.28,56123,12.5,72996.5,-2.75,-5.35,-5.55,0,*55
1509094988.54,56124,12.56,73006.5,-2.77,-5.51,-5.61,0,*55
1509094989.76,56125,12.56,72962.3,-2.77,-5.35,-5.35,0,*57
1509094991.02,56126,12.56,72960.3,-2.77,-4.81,-4.81,0,*54
1509094992.27,56127,12.56,72966.5,-2.79,-4.81,-4.81,0,*5B
1509094993.52,56128,12.56,72956.8,-2.79,-4.81,-4.85,0,*50
1509094994.76,56129,12.56,72946.8,-2.79,-4.81,-4.81,0,*55
1509094995.96,56130,12.56,72960.3,-2.79,-4.61,-4.57,0,*58
1509094997.19,56131,12.56,72968.3,-2.77,-4.57,-4.57,0,*52
1509094998.41,56132,12.56,72960.8,-2.77,-4.61,-4.57,0,*54
1509094999.64,56133,12.5,72952.0,-2.77,-4.33,-4.33,0,*50
1509095000.85,56134,12.56,72966.3,-2.77,-4.45,-4.45,0,*57
1509095002.07,56135,12.56,72962.5,-2.77,-4.41,-4.49,0,*5E
1509095003.3,56136,12.56,72982.3,-2.77,-4.21,-4.21,0,*55
1509095004.52,56137,12.56,72984.8,-2.77,-4.41,-4.45,0,*50
1509095005.74,56138,12.56,72976.8,-2.77,-4.33,-4.45,0,*5A
1509095006.96,56139,12.56,72986.5,-2.77,-4.49,-4.57,0,*55
1509095008.18,56140,12.56,72988.5,-2.75,-4.37,-4.45,0,*53
1509095009.41,56141,12.56,72986.8,-2.77,-4.57,-4.61,0,*50
1509095010.63,56142,12.5,72988.8,-2.75,-4.17,-4.25,0,*55
1509095011.83,56143,12.56,72972.5,-2.73,-4.57,-4.53,0,*57
1509095013.02,56144,12.56,72978.3,-2.73,-4.45,-4.41,0,*50
1509095014.25,56145,12.56,72990.3,-2.75,-4.29,-4.29,0,*53
1509095015.48,56146,12.56,72984.3,-2.75,-4.41,-4.45,0,*54
1509095016.7,56147,12.56,72988.5,-2.75,-4.37,-4.29,0,*5E
1509095017.92,56148,12.56,72988.8,-2.75,-4.37,-4.37,0,*5E
1509095019.15,56149,12.5,72994.0,-2.75,-4.29,-4.25,0,*53
1509095020.36,56150,12.56,72994.3,-2.73,-4.57,-4.57,0,*51
1509095021.56,56151,12.56,73000.5,-2.69,-4.41,-4.37,0,*5A
1509095022.83,56152,12.5,73000.5,-2.75,-4.93,-5.03,0,*5D
1509095024.1,56153,12.56,73000.5,-2.75,-4.77,-4.77,0,*54
1509095025.3,56154,12.56,72996.8,-2.73,-4.53,-4.61,0,*54
1509095026.5,56155,12.56,73008.0,-2.73,-4.57,-4.57,0,*54
1509095027.72,56156,12.56,73006.8,-2.73,-4.65,-4.69,0,*5B
1509095028.92,56157,12.5,73002.3,-2.73,-4.65,-4.53,0,*53
1509095030.12,56158,12.56,73000.3,-2.73,-4.53,-4.53,0,*59
1509095031.35,56159,12.56,73004.5,-2.75,-4.57,-4.57,0,*5E
1509095032.55,56160,12.56,73002.8,-2.73,-4.53,-4.57,0,*56
1509095033.74,56161,12.56,72996.3,-2.73,-4.45,-4.53,0,*54
1509095034.94,56162,12.56,72986.3,-2.73,-4.53,-4.57,0,*54
1509095036.16,56163,12.56,72982.3,-2.73,-4.65,-4.77,0,*52
1509095037.4,56164,12.56,72984.8,-2.73,-4.77,-4.77,0,*56
1509095038.59,56165,12.56,72992.3,-2.73,-4.53,-4.53,0,*57
1509095039.82,56166,12.56,72984.8,-2.75,-4.41,-4.53,0,*51
1509095041.09,56167,12.56,72978.5,-2.75,-4.69,-4.77,0,*5C
1509095042.32,56168,12.5,72990.0,-2.75,-4.57,-4.65,0,*5D
1509095043.57,56169,12.56,72986.8,-2.75,-4.65,-4.69,0,*51
1509095044.84,56170,12.56,72986.8,-2.75,-4.93,-4.93,0,*55
1509095046.09,56171,12.56,72982.5,-2.77,-4.99,-5.07,0,*50
1509095047.36,56172,12.56,72978.5,-2.75,-4.81,-4.81,0,*57
1509095048.62,56173,12.5,72970.5,-2.75,-4.57,-4.69,0,*5B
1509095049.89,56174,12.56,72970.5,-2.75,-4.77,-4.81,0,*58
1509095051.15,56175,12.56,72976.8,-2.77,-4.69,-4.73,0,*59
1509095052.37,56176,12.56,72978.8,-2.77,-4.49,-4.49,0,*51
1509095053.59,56177,12.56,72976.0,-2.75,-4.41,-4.53,0,*51
1509095054.81,56178,12.56,72978.8,-2.75,-4.41,-4.45,0,*59
1509095056.04,56179,12.56,72976.5,-2.75,-4.45,-4.53,0,*5B
1509095057.26,56180,12.56,72980.3,-2.77,-4.41,-4.41,0,*58
1509095058.49,56181,12.56,72980.3,-2.75,-4.25,-4.37,0,*58
1509095059.72,56182,12.56,72978.0,-2.75,-4.17,-4.25,0,*59
1509095060.94,56183,12.56,72976.8,-2.75,-4.17,-4.17,0,*59
1509095062.17,56184,12.56,72980.5,-2.75,-4.29,-4.37,0,*51
1509095063.4,56185,12.56,72978.0,-2.75,-4.57,-4.65,0,*5E
1509095064.59,56186,12.56,72976.3,-2.73,-4.53,-4.41,0,*59
1509095065.79,56187,12.56,72972.3,-2.73,-4.53,-4.53,0,*5B
1509095066.99,56188,12.5,72970.3,-2.73,-4.37,-4.29,0,*5B
1509095068.18,56189,12.5,72970.5,-2.73,-4.29,-4.29,0,*55
1509095069.39,56190,12.56,72972.0,-2.73,-4.25,-4.25,0,*5D
1509095070.58,56191,12.5,72976.0,-2.73,-4.37,-4.25,0,*5F
1509095071.78,56192,12.56,72980.3,-2.73,-4.29,-4.29,0,*5F
1509095072.97,56193,12.56,72984.8,-2.73,-4.29,-4.17,0,*53
1509095074.17,56194,12.56,72986.3,-2.73,-4.05,-4.13,0,*5E
1509095075.39,56195,12.5,72984.8,-2.69,-4.21,-4.13,0,*52
1509095076.62,56196,12.5,72990.8,-2.67,-4.21,-4.21,0,*5E
1509095077.85,56197,12.56,72992.5,-2.69,-4.01,-4.09,0,*59
1509095079.06,56198,12.56,72994.0,-2.69,-3.87,-3.87,0,*5E
1509095080.29,56199,12.56,72994.3,-2.67,-3.95,-4.13,0,*58
1509095081.52,56200,12.56,72998.3,-2.67,-4.21,-4.13,0,*53
1509095082.74,56201,12.56,72994.5,-2.67,-4.41,-4.37,0,*52
1509095083.97,56202,12.56,73004.0,-2.67,-4.33,-4.37,0,*54
1509095085.17,56203,12.56,73010.3,-2.65,-4.29,-4.21,0,*5B
1509095086.37,56204,12.5,73004.8,-2.65,-4.29,-4.33,0,*5F
1509095087.59,56205,12.56,73014.5,-2.67,-4.49,-4.41,0,*5F
1509095088.81,56206,12.56,73004.5,-2.67,-4.49,-4.53,0,*5F
1509095090.03,56207,12.56,73010.8,-2.67,-4.37,-4.41,0,*54
1509095091.25,56208,12.56,73010.8,-2.67,-4.37,-4.41,0,*5B
1509095092.47,56209,12.56,73010.3,-2.67,-4.41,-4.49,0,*53
1509095093.74,56210,12.56,73010.8,-2.67,-4.73,-4.77,0,*57
1509095095.0,56211,12.56,72996.3,-2.67,-4.85,-4.85,0,*52
1509095096.29,56212,12.5,72980.0,-2.67,-5.03,-5.03,0,*51
1509095097.56,56213,12.56,72982.5,-2.67,-4.89,-4.89,0,*50
1509095098.83,56214,12.5,72976.3,-2.67,-4.85,-4.89,0,*5B
1509095100.07,56215,12.5,72980.8,-2.73,-4.89,-4.93,0,*58
1509095101.34,56216,12.5,72986.5,-2.67,-4.77,-4.89,0,*54
1509095102.58,56217,12.56,72988.3,-2.73,-4.77,-4.81,0,*58
1509095103.83,56218,12.5,72992.8,-2.69,-4.73,-4.77,0,*51
1509095105.06,56219,12.56,72994.5,-2.69,-4.73,-4.65,0,*53
1509095106.28,56220,12.56,72992.5,-2.69,-4.73,-4.65,0,*59
1509095107.52,56221,12.5,72984.5,-2.73,-4.77,-4.69,0,*5B
1509095108.75,56222,12.56,72982.5,-2.69,-4.65,-4.73,0,*5B
1509095110.0,56223,12.56,72976.8,-2.69,-4.77,-4.73,0,*59
1509095111.23,56224,12.5,72978.3,-2.73,-4.93,-4.93,0,*51
1509095112.48,56225,12.56,72982.3,-2.69,-4.85,-4.85,0,*5B
1509095113.73,56226,12.56,72982.0,-2.73,-4.81,-4.89,0,*5B
1509095114.93,56227,12.56,72984.3,-2.69,-4.37,-4.25,0,*5A
1509095116.14,56228,12.56,72986.8,-2.69,-4.25,-4.25,0,*56
1509095117.33,56229,12.56,72998.5,-2.73,-4.29,-4.25,0,*50
1509095118.54,56230,12.5,73002.8,-2.69,-4.13,-4.13,0,*5F
1509095119.77,56231,12.56,73002.3,-2.67,-4.21,-4.25,0,*54
1509095120.99,56232,12.56,73000.3,-2.67,-4.37,-4.41,0,*52
1509095122.21,56233,12.56,73002.5,-2.67,-4.41,-4.49,0,*5A
1509095123.43,56234,12.5,72996.3,-2.67,-4.53,-4.61,0,*54
1509095124.66,56235,12.56,72992.0,-2.67,-4.41,-4.49,0,*5C
1509095125.88,56236,12.56,72996.0,-2.67,-4.65,-4.61,0,*53
1509095127.14,56237,12.56,73000.3,-2.67,-4.77,-4.77,0,*56
1509095128.39,56238,12.56,72996.3,-2.65,-4.85,-4.81,0,*5F
1509095129.61,56239,12.56,73000.5,-2.67,-5.39,-5.43,0,*55
1509095130.89,56240,12.56,72990.5,-2.67,-5.03,-5.03,0,*56
1509095132.11,56241,12.56,72976.3,-2.67,-5.51,-5.39,0,*59
1509095133.37,56242,12.5,72972.0,-2.69,-5.77,-5.65,0,*59
1509095134.62,56243,12.56,72982.5,-2.73,-5.19,-5.07,0,*5F
1509095135.86,56244,12.5,72980.3,-2.73,-4.77,-4.77,0,*57
1509095137.1,56245,12.56,72988.3,-2.69,-4.77,-4.73,0,*59
1509095138.35,56246,12.56,72982.5,-2.73,-4.93,-4.89,0,*5E
1509095139.56,56247,12.56,72982.8,-2.73,-4.77,-4.65,0,*57
1509095140.79,56248,12.56,72978.8,-2.69,-4.99,-4.85,0,*5D
1509095142.02,56249,12.56,72978.8,-2.73,-4.77,-4.77,0,*5A
1509095143.22,56250,12.5,72970.3,-2.73,-4.65,-4.65,0,*52
1509095144.46,56251,12.56,72972.5,-2.73,-4.77,-4.77,0,*53
1509095145.68,56252,12.56,72968.8,-2.73,-4.65,-4.77,0,*53
1509095146.9,56253,12.5,72964.5,-2.73,-4.65,-4.69,0,*5D
1509095148.13,56254,12.5,72966.3,-2.69,-4.65,-4.69,0,*51
1509095149.36,56255,12.5,72968.0,-2.69,-4.65,-4.73,0,*5B
1509095150.61,56256,12.56,72970.3,-2.73,-4.89,-4.89,0,*54
1509095151.85,56257,12.56,72970.8,-2.73,-4.93,-4.93,0,*55
1509095153.12,56258,12.5,72970.0,-2.75,-4.89,-4.89,0,*5C
1509095154.35,56259,12.56,72976.5,-2.75,-4.65,-4.65,0,*5D
1509095155.59,56260,12.56,72972.8,-2.73,-4.69,-4.69,0,*51
1509095156.83,56261,12.56,72974.8,-2.73,-4.77,-4.81,0,*59
1509095158.04,56262,12.56,72978.5,-2.73,-4.57,-4.65,0,*52
1509095159.31,56263,12.56,72976.0,-2.75,-4.69,-4.69,0,*54
1509095160.58,56264,12.56,72978.8,-2.75,-4.69,-4.69,0,*53
1509095161.83,56265,12.56,72966.5,-2.73,-4.89,-4.89,0,*54
1509095163.08,56266,12.56,72968.0,-2.73,-5.03,-5.07,0,*53
1509095164.34,56267,12.56,72968.8,-2.73,-5.15,-5.07,0,*55
1509095165.62,56268,12.5,72964.8,-2.75,-4.89,-4.89,0,*5F
1509095166.85,56269,12.5,72984.8,-2.75,-4.57,-4.57,0,*5E
1509095168.12,56270,12.56,72990.5,-2.77,-4.73,-4.73,0,*54
1509095169.39,56271,12.56,72994.0,-2.75,-4.77,-4.81,0,*5E
1509095170.67,56272,12.56,72988.0,-2.75,-5.03,-4.93,0,*5C
1509095171.93,56273,12.5,72990.3,-2.77,-4.81,-4.81,0,*57
1509095173.16,56274,12.56,72996.0,-2.75,-4.57,-4.45,0,*51
1509095174.43,56275,12.56,72988.5,-2.77,-4.85,-4.81,0,*55
1509095175.66,56276,12.56,72988.0,-2.75,-4.57,-4.65,0,*51
1509095176.89,56277,12.56,72990.8,-2.75,-4.57,-4.57,0,*51
1509095178.12,56278,12.56,72992.5,-2.75,-4.53,-4.53,0,*5E
1509095179.34,56279,12.56,72992.8,-2.75,-4.41,-4.37,0,*5E
1509095180.57,56280,12.56,72996.3,-2.75,-4.05,-4.05,0,*59
1509095181.81,56281,12.56,72992.8,-2.75,-3.79,-3.91,0,*5E
1509095183.04,56282,12.56,72996.0,-2.73,-3.91,-4.01,0,*53
1509095184.24,56283,12.56,73004.5,-2.69,-4.13,-4.25,0,*52
1509095185.49,56284,12.56,73006.3,-2.73,-4.89,-5.03,0,*58
1509095186.75,56285,12.56,73006.0,-2.69,-5.03,-4.89,0,*52
1509095187.99,56286,12.56,73006.0,-2.73,-4.93,-4.89,0,*52
1509095189.25,56287,12.56,73006.0,-2.73,-5.15,-5.07,0,*5B
1509095190.49,56288,12.56,72990.5,-2.73,-4.77,-4.69,0,*58
1509095191.69,56289,12.56,72988.0,-2.73,-4.41,-4.41,0,*56
1509095192.88,56290,12.56,72990.5,-2.73,-4.41,-4.41,0,*5E
1509095194.08,56291,12.5,72988.3,-2.73,-4.41,-4.41,0,*5F
1509095195.28,56292,12.56,72990.8,-2.73,-4.29,-4.29,0,*5C
1509095196.48,56293,12.56,72988.8,-2.73,-4.05,-4.05,0,*5D
1509095197.67,56294,12.56,72988.8,-2.73,-4.25,-4.33,0,*5D
1509095198.88,56295,12.56,72988.8,-2.69,-4.65,-4.61,0,*54
1509095200.08,56296,12.56,72990.8,-2.69,-4.53,-4.53,0,*53
1509095201.28,56297,12.56,72988.5,-2.69,-4.49,-4.49,0,*52
1509095202.48,56298,12.56,72990.8,-2.69,-4.53,-4.65,0,*58
1509095203.69,56299,12.56,72990.3,-2.69,-4.65,-4.65,0,*5C
1509095204.89,56300,12.56,72990.3,-2.69,-4.37,-4.41,0,*5C
1509095206.07,56301,12.56,72986.5,-2.73,-4.45,-4.45,0,*57
1509095207.28,56302,12.56,72986.8,-2.69,-4.33,-4.33,0,*5F
1509095208.48,56303,12.56,72990.3,-2.73,-4.29,-4.37,0,*5A
1509095209.67,56304,12.56,72986.5,-2.69,-4.49,-4.49,0,*59
1509095210.87,56305,12.56,72986.8,-2.69,-4.37,-4.37,0,*58
1509095212.08,56306,12.56,72992.5,-2.69,-4.37,-4.37,0,*5B
1509095213.28,56307,12.56,72996.5,-2.69,-4.33,-4.33,0,*5A
1509095214.49,56308,12.5,72988.0,-2.69,-4.25,-4.21,0,*51
1509095215.72,56309,12.5,72982.3,-2.67,-3.95,-3.95,0,*5A
1509095216.92,56310,12.56,72984.3,-2.65,-3.91,-3.95,0,*54
1509095218.12,56311,12.56,72990.0,-2.65,-4.09,-4.09,0,*51
1509095219.4,56312,12.56,72990.5,-2.67,-4.01,-4.01,0,*50
1509095220.6,56313,12.56,72988.8,-2.65,-3.95,-3.91,0,*57
1509095221.8,56314,12.56,72988.3,-2.65,-3.83,-3.79,0,*51
1509095223.03,56315,12.56,72990.3,-2.61,-4.05,-4.01,0,*55
1509095224.25,56316,12.56,72992.8,-2.63,-4.29,-4.29,0,*50
1509095225.47,56317,12.56,72996.8,-2.63,-4.17,-4.17,0,*51
1509095226.67,56318,12.56,72992.3,-2.61,-4.05,-4.05,0,*5C
1509095227.87,56319,12.56,72992.8,-2.61,-4.13,-4.13,0,*5D
1509095229.09,56320,12.56,72998.8,-2.61,-4.01,-4.05,0,*53
1509095230.3,56321,12.56,72996.5,-2.61,-3.91,-3.87,0,*51
1509095231.5,56322,12.56,72992.0,-2.61,-3.79,-3.79,0,*55
1509095232.76,56323,12.56,72994.0,-2.59,-4.01,-3.91,0,*51
1509095233.99,56324,12.56,72996.3,-2.59,-3.91,-3.91,0,*58
1509095235.21,56325,12.56,72996.0,-2.59,-4.05,-3.91,0,*53
1509095236.42,56326,12.56,72998.5,-2.57,-4.21,-4.21,0,*54
1509095237.65,56327,12.56,73000.0,-2.59,-4.17,-4.25,0,*5A
1509095238.85,56328,12.56,73000.5,-2.57,-4.21,-4.21,0,*5A
1509095240.05,56329,12.5,72994.3,-2.57,-4.65,-4.65,0,*5B
1509095241.31,56330,12.56,72992.8,-2.59,-4.93,-4.93,0,*5D
1509095242.58,56331,12.56,72992.3,-2.59,-4.81,-4.89,0,*54
1509095243.84,56332,12.56,72990.8,-2.59,-4.69,-4.77,0,*50
1509095245.07,56333,12.56,72988.5,-2.59,-4.57,-4.65,0,*5F
1509095246.27,56334,12.56,72994.5,-2.57,-4.53,-4.53,0,*57
1509095247.47,56335,12.56,72996.8,-2.61,-4.57,-4.53,0,*57
1509095248.69,56336,12.56,73002.8,-2.63,-4.49,-4.49,0,*52
1509095249.91,56337,12.5,73002.3,-2.59,-4.65,-4.65,0,*5A
1509095251.13,56338,12.56,73002.8,-2.61,-4.65,-4.69,0,*52
1509095252.4,56339,12.56,72998.3,-2.63,-4.85,-4.85,0,*5D
1509095253.67,56340,12.5,72992.0,-2.63,-4.85,-4.81,0,*57
1509095254.89,56341,12.56,72988.5,-2.61,-4.69,-4.57,0,*5D
1509095256.09,56342,12.5,72986.0,-2.61,-4.57,-4.65,0,*52
1509095257.31,56343,12.56,72988.3,-2.61,-4.69,-4.65,0,*5E
1509095258.5,56344,12.56,72984.0,-2.61,-4.41,-4.41,0,*55
1509095259.7,56345,12.56,72988.0,-2.61,-4.33,-4.29,0,*5F
1509095260.93,56346,12.56,72986.8,-2.63,-4.21,-4.17,0,*50
1509095262.15,56347,12.56,72984.5,-2.63,-4.17,-4.17,0,*54
1509095263.37,56348,12.56,72984.0,-2.63,-4.09,-4.09,0,*5B
1509095264.63,56349,12.56,72986.3,-2.59,-4.01,-3.91,0,*5D
1509095265.82,56350,12.5,72984.0,-2.57,-3.87,-3.83,0,*51
1509095267.04,56351,12.56,72986.3,-2.59,-4.13,-4.13,0,*5A
1509095268.27,56352,12.56,72990.8,-2.59,-4.41,-4.33,0,*5C
1509095269.46,56353,12.56,72986.0,-2.57,-4.29,-4.25,0,*5A
1509095270.68,56354,12.56,72988.8,-2.57,-4.09,-4.01,0,*59
1509095271.9,56355,12.56,72990.3,-2.59,-4.13,-4.13,0,*5E
1509095273.13,56356,12.56,72994.5,-2.59,-4.17,-4.13,0,*59
1509095274.32,56357,12.56,72992.5,-2.57,-4.13,-4.13,0,*52
1509095275.51,56358,12.56,73000.0,-2.57,-3.87,-3.83,0,*59
1509095276.72,56359,12.56,73002.0,-2.57,-4.21,-4.13,0,*5D
1509095277.91,56360,12.56,72998.0,-2.57,-4.41,-4.41,0,*56
1509095279.11,56361,12.5,72994.0,-2.57,-4.29,-4.37,0,*58
1509095280.3,56362,12.56,72992.8,-2.57,-4.41,-4.41,0,*54
1509095281.57,56363,12.56,72984.5,-2.59,-4.81,-4.81,0,*5B
1509095282.81,56364,12.56,72982.8,-2.57,-4.73,-4.73,0,*52
1509095284.08,56365,12.56,72978.3,-2.59,-5.11,-5.31,0,*5F
1509095285.33,56366,12.56,72980.0,-2.57,-5.27,-5.27,0,*50
1509095286.58,56367,12.56,72982.3,-2.61,-5.07,-5.03,0,*50
1509095287.83,56368,12.56,72982.3,-2.61,-4.93,-4.89,0,*50
1509095289.1,56369,12.56,72982.8,-2.59,-4.93,-5.03,0,*59
1509095290.38,56370,12.56,72984.8,-2.63,-5.23,-5.23,0,*50
1509095291.66,56371,12.56,72982.5,-2.63,-5.15,-5.23,0,*54
1509095292.95,56372,12.56,72990.5,-2.63,-5.15,-5.23,0,*57
1509095294.2,56373,12.56,72994.5,-2.63,-5.35,-5.27,0,*50
1509095295.45,56374,12.5,72990.8,-2.65,-5.27,-5.15,0,*53
1509095296.72,56375,12.56,72984.8,-2.67,-4.77,-4.73,0,*55
1509095297.96,56376,12.56,72980.3,-2.65,-5.11,-5.03,0,*53
1509095299.15,56377,12.56,72976.8,-2.65,-4.99,-4.99,0,*51
1509095300.35,56378,12.56,72980.5,-2.65,-4.57,-4.49,0,*51
1509095301.55,56379,12.56,72982.5,-2.65,-4.21,-4.05,0,*59
1509095302.75,56380,12.56,72980.5,-2.65,-4.17,-4.09,0,*56
1509095303.94,56381,12.56,72984.5,-2.65,-4.05,-4.05,0,*58
1509095305.17,56382,12.56,72994.0,-2.63,-4.17,-4.21,0,*58
1509095306.4,56383,12.56,72992.8,-2.63,-4.57,-4.53,0,*58
1509095307.63,56384,12.56,72990.0,-2.63,-4.29,-4.29,0,*5B
1509095308.86,56385,12.56,72994.8,-2.63,-4.57,-4.61,0,*5F
1509095310.07,56386,12.56,72994.5,-2.63,-4.37,-4.45,0,*5C